This is the latest recevied weather packets stored in our database for station/object KC4JIR. If no packets are shown the sender has not sent any weather packets the latest 1 day(s).
| Time | Temp. | Humidity | Pressure | Rain* | Wind** | Luminosity | Snow |
|---|---|---|---|---|---|---|---|
| 1778093471 | 30.56° C | 44% | 1012.4 hPa | 0 mm | - | 671 W/m² | - |
| 1778092866 | 30.56° C | 45% | 1012.8 hPa | 0 mm | - | 735 W/m² | - |
| 1778092563 | 30.56° C | 43% | 1012.8 hPa | 0 mm | - | 744 W/m² | - |
| 1778089222 | 30° C | 47% | 1013.1 hPa | 0 mm | - | 776 W/m² | - |
| 1778087096 | 28.33° C | 52% | 1013.6 hPa | 0 mm | - | 811 W/m² | - |
| 1778086493 | 28.33° C | 53% | 1013.8 hPa | 0 mm | - | 925 W/m² | - |
| 1778085583 | 27.78° C | 55% | 1013.9 hPa | 0 mm | - | 447 W/m² | - |
| 1778085278 | 28.89° C | 53% | 1014.2 hPa | 0 mm | - | 676 W/m² | - |
| 1778084362 | 28.33° C | 51% | 1014.2 hPa | 0 mm | - | 818 W/m² | - |
| 1778081731 | 26.11° C | 64% | 1014.5 hPa | 0 mm | - | 764 W/m² | - |
| 1778080218 | 23.89° C | 77% | 1014.7 hPa | 0 mm | - | 322 W/m² | - |
| 1778079308 | 22.78° C | 79% | 1014.5 hPa | 0 mm | - | 347 W/m² | - |
| 1778078400 | 22.22° C | 83% | 1014.3 hPa | 0 mm | - | 237 W/m² | - |
| 1778076587 | 21.67° C | 84% | 1013.9 hPa | 0 mm | - | 188 W/m² | - |
| 1778076283 | 21.11° C | 86% | 1013.9 hPa | 0 mm | - | 236 W/m² | - |
| 1778075677 | 20.56° C | 87% | 1014.2 hPa | 0 mm | - | 177 W/m² | - |
| 1778075373 | 20.56° C | 87% | 1014.1 hPa | 0 mm | - | 178 W/m² | - |
| 1778073555 | 19.44° C | 89% | 1013.9 hPa | 0 mm | - | 98 W/m² | - |
| 1778073251 | 19.44° C | 89% | 1013.8 hPa | 0 mm | - | 103 W/m² | - |
| 1778072041 | 18.89° C | 91% | 1013.5 hPa | 0 mm | - | 95 W/m² | - |
| 1778071739 | 18.89° C | 92% | 1013.8 hPa | 0 mm | - | 88 W/m² | - |
| 1778070225 | 17.78° C | 94% | 1013.7 hPa | 0 mm | - | 56 W/m² | - |
| 1778068712 | 16.67° C | 96% | 1013 hPa | 0 mm | - | 47 W/m² | - |
| 1778068108 | 16.11° C | 96% | 1012.9 hPa | 0 mm | - | 24 W/m² | - |
| 1778067504 | 16.11° C | 96% | 1012.7 hPa | 0 mm | - | 16 W/m² | - |
* Rain latest hour (hover to see other rain measurements)
** Current wind speed in m/s (hover to see current wind gust speed)